• In Uzbekistan
  • List of Countries
  • For 7 days
  • Water Temperature
  • Weather Map
  • Weather Widgets
  • user-avatar
    Login

    Hourly Weather Ochakov

    Today, 23 January, Thursday

    Time Temperature Precipitation Wind Pressure Humidity
    00:00 +1°C° 0 mm 10 mps 760 mmHg 68%
    01:00 0°C° 0 mm 10 mps 760 mmHg 70%
    02:00 0°C° 0 mm 10 mps 760 mmHg 73%
    03:00 0°C° 0 mm 10 mps 761 mmHg 73%
    04:00 0°C° 0 mm 10 mps 761 mmHg 72%
    05:00 -2°C° 0 mm 10 mps 761 mmHg 72%
    06:00 -2°C° 0 mm 10 mps 762 mmHg 73%
    07:00 -3°C° 0 mm 10 mps 763 mmHg 73%
    08:00 -3°C° 0 mm 10 mps 764 mmHg 74%
    09:00 -2°C° 0 mm 10 mps 764 mmHg 68%
    10:00 -2°C° 0 mm 10 mps 765 mmHg 62%
    11:00 0°C° 0 mm 10 mps 766 mmHg 56%
    12:00 0°C° 0 mm 10 mps 766 mmHg 56%
    13:00 0°C° 0 mm 10 mps 766 mmHg 55%
    14:00 +1°C° 0 mm 11 mps 766 mmHg 55%
    15:00 0°C° 0 mm 10 mps 767 mmHg 53%
    16:00 0°C° 0 mm 9 mps 767 mmHg 51%
    17:00 -1°C° 0 mm 8 mps 768 mmHg 49%
    18:00 -1°C° 0 mm 8 mps 768 mmHg 55%
    19:00 -1°C° 0 mm 7 mps 769 mmHg 60%
    20:00 -2°C° 0 mm 7 mps 769 mmHg 66%
    21:00 -2°C° 0 mm 6 mps 770 mmHg 70%
    22:00 -3°C° 0 mm 6 mps 770 mmHg 74%
    23:00 -3°C° 0 mm 6 mps 770 mmHg 79%

    Tomorrow, 24 January, Friday

    Time Temperature Precipitation Wind Pressure Humidity
    00:00 -3°C° 0 mm 6 mps 770 mmHg 81%
    01:00 -4°C° 0 mm 5 mps 770 mmHg 83%
    02:00 -4°C° 0 mm 5 mps 771 mmHg 85%
    03:00 -4°C° 0 mm 5 mps 770 mmHg 86%
    04:00 -4°C° 0 mm 5 mps 770 mmHg 87%
    05:00 -4°C° 0 mm 5 mps 770 mmHg 88%
    06:00 -4°C° 0 mm 5 mps 770 mmHg 88%
    07:00 -4°C° 0 mm 4 mps 770 mmHg 88%
    08:00 -4°C° 0 mm 4 mps 771 mmHg 88%
    09:00 -2°C° 0 mm 5 mps 771 mmHg 80%
    10:00 -1°C° 0 mm 5 mps 770 mmHg 71%
    11:00 +1°C° 0 mm 6 mps 770 mmHg 62%
    12:00 +1°C° 0 mm 6 mps 770 mmHg 57%
    13:00 +2°C° 0 mm 6 mps 770 mmHg 52%
    14:00 +3°C° 0 mm 6 mps 769 mmHg 47%
    15:00 +2°C° 0 mm 6 mps 769 mmHg 49%
    16:00 +2°C° 0 mm 6 mps 768 mmHg 50%
    17:00 +1°C° 0 mm 6 mps 768 mmHg 52%
    18:00 +1°C° 0 mm 6 mps 768 mmHg 55%
    19:00 -1°C° 0 mm 6 mps 768 mmHg 59%
    20:00 -1°C° 0 mm 6 mps 768 mmHg 62%
    21:00 -1°C° 0 mm 6 mps 767 mmHg 63%
    22:00 0°C° 0 mm 5 mps 767 mmHg 63%
    23:00 0°C° 0 mm 5 mps 767 mmHg 64%

    Day after tomorrow, 25 January, Saturday

    Time Temperature Precipitation Wind Pressure Humidity
    00:00 -1°C° 0 mm 5 mps 766 mmHg 64%
    01:00 -1°C° 0 mm 5 mps 766 mmHg 63%
    02:00 -1°C° 0 mm 5 mps 766 mmHg 63%
    03:00 -1°C° 0 mm 5 mps 765 mmHg 63%
    04:00 -1°C° 0 mm 5 mps 765 mmHg 63%
    05:00 -1°C° 0 mm 5 mps 764 mmHg 64%
    06:00 -2°C° 0 mm 4 mps 764 mmHg 65%
    07:00 -2°C° 0 mm 4 mps 764 mmHg 67%
    08:00 -3°C° 0 mm 4 mps 764 mmHg 69%
    09:00 0°C° 0 mm 3 mps 764 mmHg 63%
    10:00 +1°C° 0 mm 3 mps 764 mmHg 57%
    11:00 +2°C° 0 mm 3 mps 764 mmHg 51%
    12:00 +4°C° 0 mm 3 mps 764 mmHg 46%
    13:00 +5°C° 0 mm 3 mps 764 mmHg 42%
    14:00 +7°C° 0 mm 3 mps 764 mmHg 37%
    15:00 +5°C° 0 mm 3 mps 763 mmHg 41%
    16:00 +4°C° 0 mm 4 mps 763 mmHg 44%
    17:00 +3°C° 0 mm 4 mps 763 mmHg 48%
    18:00 +1°C° 0 mm 4 mps 764 mmHg 51%
    19:00 +1°C° 0 mm 5 mps 764 mmHg 55%
    20:00 0°C° 0 mm 5 mps 765 mmHg 59%
    21:00 0°C° 0 mm 5 mps 765 mmHg 61%
    22:00 0°C° 0 mm 5 mps 765 mmHg 64%
    23:00 -1°C° 0 mm 5 mps 765 mmHg 66%

    26 January, Sunday

    Time Temperature Precipitation Wind Pressure Humidity
    00:00 -1°C° 0 mm 5 mps 765 mmHg 68%
    01:00 -1°C° 0 mm 5 mps 765 mmHg 69%
    02:00 -1°C° 0 mm 5 mps 766 mmHg 71%
    03:00 -1°C° 0 mm 4 mps 766 mmHg 71%
    04:00 0°C° 0 mm 4 mps 766 mmHg 72%
    05:00 +1°C° 0 mm 3 mps 766 mmHg 73%
    06:00 +1°C° 0 mm 3 mps 766 mmHg 73%
    07:00 +1°C° 0 mm 3 mps 767 mmHg 73%
    08:00 +1°C° 0 mm 3 mps 767 mmHg 73%
    09:00 +3°C° 0 mm 2 mps 768 mmHg 70%
    10:00 +4°C° 0 mm 2 mps 768 mmHg 68%
    11:00 +5°C° 0 mm 2 mps 768 mmHg 65%
    12:00 +5°C° 0 mm 2 mps 768 mmHg 63%
    13:00 +7°C° 0 mm 1 mps 768 mmHg 61%
    14:00 +8°C° 0 mm 1 mps 768 mmHg 59%
    15:00 +7°C° 0 mm 1 mps 768 mmHg 62%
    16:00 +6°C° 0 mm 1 mps 768 mmHg 64%
    17:00 +6°C° 0 mm 1 mps 769 mmHg 67%
    18:00 +5°C° 0 mm 1 mps 769 mmHg 69%
    19:00 +5°C° 0 mm 1 mps 769 mmHg 72%
    20:00 +4°C° 0 mm 1 mps 769 mmHg 74%
    21:00 +4°C° 0 mm 1 mps 769 mmHg 75%
    22:00 +4°C° 0 mm 1 mps 769 mmHg 77%
    23:00 +2°C° 0 mm 2 mps 770 mmHg 79%

    27 January, Monday

    Time Temperature Precipitation Wind Pressure Humidity
    00:00 +2°C° 0 mm 2 mps 770 mmHg 81%
    01:00 +2°C° 0 mm 2 mps 770 mmHg 82%
    02:00 +1°C° 0 mm 3 mps 770 mmHg 84%
    03:00 +1°C° 0 mm 3 mps 769 mmHg 85%
    04:00 +1°C° 0 mm 3 mps 769 mmHg 86%
    05:00 +1°C° 0 mm 3 mps 769 mmHg 87%
    06:00 0°C° 0 mm 4 mps 769 mmHg 88%
    07:00 0°C° 0 mm 4 mps 769 mmHg 89%
    08:00 0°C° 0 mm 4 mps 769 mmHg 90%
    09:00 +2°C° 0 mm 5 mps 769 mmHg 85%
    10:00 +3°C° 0 mm 5 mps 769 mmHg 79%
    11:00 +5°C° 0 mm 5 mps 769 mmHg 74%
    12:00 +5°C° 0 mm 5 mps 768 mmHg 75%
    13:00 +6°C° 0 mm 5 mps 768 mmHg 75%
    14:00 +6°C° 0 mm 5 mps 767 mmHg 76%
    15:00 +6°C° 0 mm 5 mps 767 mmHg 80%
    16:00 +5°C° 0 mm 5 mps 767 mmHg 84%
    17:00 +5°C° 0 mm 5 mps 767 mmHg 89%
    18:00 +4°C° 0 mm 4 mps 767 mmHg 90%
    19:00 +4°C° 0 mm 4 mps 767 mmHg 91%
    20:00 +4°C° 0 mm 4 mps 766 mmHg 93%
    21:00 +4°C° 0 mm 4 mps 766 mmHg 93%
    22:00 +4°C° 0 mm 4 mps 766 mmHg 93%
    23:00 +4°C° 0 mm 4 mps 766 mmHg 93%

    28 January, Tuesday

    Time Temperature Precipitation Wind Pressure Humidity
    00:00 +4°C° 0 mm 3 mps 766 mmHg 94%
    01:00 +4°C° 0 mm 3 mps 766 mmHg 94%
    02:00 +3°C° 0 mm 3 mps 765 mmHg 95%
    03:00 +4°C° 0 mm 2 mps 765 mmHg 94%
    04:00 +4°C° 0 mm 2 mps 765 mmHg 94%
    05:00 +4°C° 0 mm 1 mps 765 mmHg 93%
    06:00 +4°C° 0 mm 1 mps 765 mmHg 92%
    07:00 +4°C° 0 mm 1 mps 765 mmHg 91%
    08:00 +4°C° 0 mm 1 mps 765 mmHg 90%
    09:00 +5°C° 0 mm 1 mps 766 mmHg 84%
    10:00 +7°C° 0 mm 1 mps 766 mmHg 77%
    11:00 +8°C° 0 mm 1 mps 766 mmHg 70%
    12:00 +9°C° 0 mm 1 mps 765 mmHg 66%
    13:00 +10°C° 0 mm 1 mps 765 mmHg 62%
    14:00 +10°C° 0 mm 1 mps 765 mmHg 57%
    15:00 +9°C° 0 mm 1 mps 765 mmHg 62%
    16:00 +9°C° 0 mm 1 mps 765 mmHg 67%
    17:00 +8°C° 0 mm 1 mps 765 mmHg 71%
    18:00 +6°C° 0 mm 2 mps 765 mmHg 74%
    19:00 +6°C° 0 mm 2 mps 765 mmHg 77%
    20:00 +5°C° 0 mm 2 mps 765 mmHg 79%
    21:00 +4°C° 0 mm 3 mps 765 mmHg 82%
    22:00 +4°C° 0 mm 3 mps 765 mmHg 85%
    23:00 +4°C° 0 mm 3 mps 765 mmHg 88%
    Show more